This is the latest recevied weather packets stored in our database for station/object G6FCI. If no packets are shown the sender has not sent any weather packets the latest 10 day(s).
| Time | Temp. | Humidity | Pressure | Rain* | Wind** | Luminosity | Snow |
|---|---|---|---|---|---|---|---|
| 1777480564 | 18.33° C | 46% | 1026.1 hPa | 0 mm | - | - | - |
| 1777480023 | 18.33° C | 45% | 1026 hPa | 0 mm | - | - | - |
| 1777473363 | 18.89° C | 46% | 1026.9 hPa | 0 mm | - | - | - |
| 1777469223 | 18.89° C | 54% | 1027.1 hPa | 0 mm | - | - | - |
| 1777462563 | 17.78° C | 55% | 1028 hPa | 0 mm | - | - | - |
| 1777459503 | 16.67° C | 65% | 1028.2 hPa | 0 mm | - | - | - |
| 1777455363 | 14.44° C | 84% | 1028.5 hPa | 0 mm | - | - | - |
| 1777452843 | 13.33° C | 78% | 1028.9 hPa | 0 mm | - | - | - |
| 1777452303 | 12.78° C | 78% | 1029 hPa | 0 mm | - | - | - |
| 1777449603 | 11.11° C | 76% | 1029.1 hPa | 0 mm | - | - | - |
| 1777448184 | 10° C | 74% | 1029.2 hPa | 0 mm | - | - | - |
| 1777444023 | 6.67° C | 74% | 1029.2 hPa | 0 mm | - | - | - |
| 1777442943 | 6.67° C | 74% | 1029.2 hPa | 0 mm | - | - | - |
| 1777442064 | 5.56° C | 74% | 1029.3 hPa | 0 mm | - | - | - |
| 1777441503 | 5° C | 75% | 1029.1 hPa | 0 mm | - | - | - |
| 1777438443 | 4.44° C | 76% | 1029 hPa | 0 mm | - | - | - |
| 1777436844 | 5° C | 76% | 1029.1 hPa | 0 mm | - | - | - |
| 1777429083 | 6.11° C | 72% | 1029.3 hPa | 0 mm | - | - | - |
| 1777428543 | 5.56° C | 75% | 1029.4 hPa | 0 mm | - | - | - |
| 1777427664 | 5.56° C | 76% | 1029.6 hPa | 0 mm | - | - | - |
| 1777418823 | 6.11° C | 82% | 1030.3 hPa | 0 mm | - | - | - |
| 1777414683 | 7.78° C | 81% | 1029.9 hPa | 0 mm | - | - | - |
| 1777412184 | 8.33° C | 84% | 1029.9 hPa | 0 mm | - | - | - |
| 1777406944 | 10° C | 85% | 1029.4 hPa | 0 mm | - | - | - |
| 1777404963 | 10.56° C | 84% | 1029.2 hPa | 0 mm | - | - | - |
* Rain latest hour (hover to see other rain measurements)
** Current wind speed in m/s (hover to see current wind gust speed)